• In Netherlands
  • List of Countries
  • For 7 days
  • Water Temperature
  • Satellite Maps
  • Weather Map
  • Weather Widgets
  • user-avatar
    Login

    Hourly Weather Borovec

    Today, 1 May, Monday

    Time Temperature Precipitation Wind Pressure Humidity
    00:00 +11°C° 0.1 mm 1 mps 709 mmHg 97%
    01:00 +11°C° 0.1 mm 1 mps 709 mmHg 97%
    02:00 +10°C° 0.1 mm 1 mps 709 mmHg 97%
    03:00 +10°C° 0.1 mm 1 mps 709 mmHg 97%
    04:00 +10°C° 0.1 mm 1 mps 709 mmHg 97%
    05:00 +10°C° 0.1 mm 1 mps 708 mmHg 97%
    06:00 +11°C° 0 mm 1 mps 709 mmHg 93%
    07:00 +13°C° 0 mm 1 mps 709 mmHg 89%
    08:00 +15°C° 0 mm 1 mps 710 mmHg 84%
    09:00 +18°C° 0 mm 1 mps 710 mmHg 75%
    10:00 +19°C° 0 mm 1 mps 710 mmHg 67%
    11:00 +20°C° 0 mm 2 mps 710 mmHg 58%
    12:00 +20°C° 0.1 mm 2 mps 710 mmHg 56%
    13:00 +21°C° 0.1 mm 2 mps 710 mmHg 54%
    14:00 +23°C° 0.1 mm 2 mps 710 mmHg 52%
    15:00 +21°C° 0.4 mm 2 mps 710 mmHg 54%
    16:00 +21°C° 0.4 mm 2 mps 710 mmHg 56%
    17:00 +21°C° 0.4 mm 2 mps 709 mmHg 58%
    18:00 +18°C° 0.1 mm 2 mps 709 mmHg 67%
    19:00 +16°C° 0.1 mm 2 mps 709 mmHg 75%
    20:00 +13°C° 0.1 mm 1 mps 709 mmHg 84%
    21:00 +13°C° 0 mm 1 mps 709 mmHg 85%
    22:00 +12°C° 0 mm 1 mps 709 mmHg 86%
    23:00 +11°C° 0 mm 1 mps 710 mmHg 87%

    Tomorrow, 2 May, Tuesday

    Time Temperature Precipitation Wind Pressure Humidity
    00:00 +11°C° 0 mm 1 mps 710 mmHg 87%
    01:00 +11°C° 0 mm 1 mps 710 mmHg 87%
    02:00 +10°C° 0 mm 1 mps 710 mmHg 87%
    03:00 +10°C° 0 mm 1 mps 710 mmHg 87%
    04:00 +9°C° 0 mm 1 mps 710 mmHg 88%
    05:00 +9°C° 0 mm 1 mps 710 mmHg 89%
    06:00 +12°C° 0 mm 1 mps 710 mmHg 80%
    07:00 +15°C° 0 mm 1 mps 711 mmHg 71%
    08:00 +17°C° 0 mm 0 mps 711 mmHg 62%
    09:00 +20°C° 0 mm 1 mps 712 mmHg 56%
    10:00 +22°C° 0 mm 1 mps 712 mmHg 50%
    11:00 +24°C° 0 mm 1 mps 712 mmHg 44%
    12:00 +25°C° 0.1 mm 2 mps 712 mmHg 42%
    13:00 +25°C° 0.1 mm 2 mps 712 mmHg 41%
    14:00 +26°C° 0.1 mm 2 mps 712 mmHg 39%
    15:00 +25°C° 0.3 mm 2 mps 711 mmHg 41%
    16:00 +25°C° 0.3 mm 2 mps 711 mmHg 44%
    17:00 +24°C° 0.3 mm 2 mps 711 mmHg 46%
    18:00 +20°C° 0.1 mm 2 mps 711 mmHg 55%
    19:00 +18°C° 0.1 mm 2 mps 711 mmHg 64%
    20:00 +15°C° 0.1 mm 1 mps 711 mmHg 72%
    21:00 +14°C° 0 mm 1 mps 711 mmHg 74%
    22:00 +13°C° 0 mm 1 mps 711 mmHg 76%
    23:00 +13°C° 0 mm 1 mps 711 mmHg 77%

    Day after tomorrow, 3 May, Wednesday

    Time Temperature Precipitation Wind Pressure Humidity
    00:00 +12°C° 0 mm 1 mps 711 mmHg 78%
    01:00 +12°C° 0 mm 1 mps 711 mmHg 79%
    02:00 +11°C° 0 mm 1 mps 711 mmHg 80%
    03:00 +11°C° 0 mm 1 mps 711 mmHg 81%
    04:00 +11°C° 0 mm 1 mps 711 mmHg 83%
    05:00 +10°C° 0 mm 1 mps 710 mmHg 84%
    06:00 +13°C° 0 mm 1 mps 711 mmHg 75%
    07:00 +16°C° 0 mm 1 mps 711 mmHg 67%
    08:00 +19°C° 0 mm 1 mps 712 mmHg 58%
    09:00 +21°C° 0 mm 1 mps 712 mmHg 52%
    10:00 +23°C° 0 mm 1 mps 712 mmHg 46%
    11:00 +25°C° 0 mm 1 mps 712 mmHg 41%
    12:00 +25°C° 0.1 mm 2 mps 712 mmHg 39%
    13:00 +26°C° 0.1 mm 2 mps 712 mmHg 38%
    14:00 +26°C° 0.1 mm 2 mps 711 mmHg 36%
    15:00 +26°C° 0.2 mm 2 mps 711 mmHg 38%
    16:00 +25°C° 0.2 mm 2 mps 711 mmHg 40%
    17:00 +25°C° 0.2 mm 2 mps 710 mmHg 42%
    18:00 +21°C° 0 mm 2 mps 710 mmHg 50%
    19:00 +18°C° 0 mm 2 mps 710 mmHg 58%
    20:00 +16°C° 0 mm 2 mps 709 mmHg 67%
    21:00 +15°C° 0 mm 2 mps 710 mmHg 70%
    22:00 +14°C° 0 mm 2 mps 710 mmHg 73%
    23:00 +13°C° 0 mm 2 mps 710 mmHg 76%

    4 May, Thursday

    Time Temperature Precipitation Wind Pressure Humidity
    00:00 +13°C° 0 mm 2 mps 710 mmHg 80%
    01:00 +13°C° 0 mm 2 mps 710 mmHg 84%
    02:00 +12°C° 0 mm 2 mps 709 mmHg 88%
    03:00 +12°C° 0 mm 2 mps 709 mmHg 89%
    04:00 +11°C° 0 mm 1 mps 709 mmHg 90%
    05:00 +11°C° 0 mm 1 mps 709 mmHg 91%
    06:00 +13°C° 0 mm 1 mps 709 mmHg 81%
    07:00 +16°C° 0 mm 1 mps 710 mmHg 72%
    08:00 +19°C° 0 mm 1 mps 710 mmHg 63%
    09:00 +21°C° 0 mm 1 mps 710 mmHg 56%
    10:00 +23°C° 0 mm 1 mps 710 mmHg 49%
    11:00 +25°C° 0 mm 1 mps 710 mmHg 42%
    12:00 +25°C° 0.5 mm 2 mps 710 mmHg 42%
    13:00 +25°C° 0.5 mm 2 mps 709 mmHg 43%
    14:00 +26°C° 0.5 mm 2 mps 709 mmHg 43%
    15:00 +25°C° 0.6 mm 2 mps 709 mmHg 45%
    16:00 +25°C° 0.6 mm 2 mps 708 mmHg 47%
    17:00 +24°C° 0.6 mm 2 mps 708 mmHg 49%
    18:00 +21°C° 0.4 mm 2 mps 708 mmHg 58%
    19:00 +18°C° 0.4 mm 2 mps 708 mmHg 67%
    20:00 +15°C° 0.4 mm 1 mps 707 mmHg 75%
    21:00 +15°C° 0 mm 1 mps 707 mmHg 77%
    22:00 +14°C° 0 mm 2 mps 708 mmHg 78%
    23:00 +14°C° 0 mm 2 mps 708 mmHg 80%

    5 May, Friday

    Time Temperature Precipitation Wind Pressure Humidity
    00:00 +14°C° 0 mm 2 mps 708 mmHg 82%
    01:00 +13°C° 0 mm 1 mps 707 mmHg 84%
    02:00 +13°C° 0 mm 1 mps 707 mmHg 87%
    03:00 +13°C° 0.1 mm 1 mps 707 mmHg 87%
    04:00 +13°C° 0.1 mm 1 mps 707 mmHg 88%
    05:00 +13°C° 0.1 mm 1 mps 707 mmHg 89%
    06:00 +14°C° 0.1 mm 1 mps 708 mmHg 85%
    07:00 +15°C° 0.1 mm 1 mps 708 mmHg 80%
    08:00 +16°C° 0.1 mm 1 mps 708 mmHg 76%
    09:00 +19°C° 0.2 mm 1 mps 708 mmHg 71%
    10:00 +20°C° 0.2 mm 1 mps 708 mmHg 67%
    11:00 +21°C° 0.2 mm 1 mps 708 mmHg 62%
    12:00 +21°C° 1.2 mm 1 mps 708 mmHg 63%
    13:00 +21°C° 1.2 mm 1 mps 707 mmHg 65%
    14:00 +20°C° 1.2 mm 2 mps 707 mmHg 66%
    15:00 +20°C° 1.7 mm 1 mps 706 mmHg 71%
    16:00 +19°C° 1.7 mm 1 mps 706 mmHg 76%
    17:00 +18°C° 1.7 mm 1 mps 706 mmHg 80%
    18:00 +15°C° 0.6 mm 1 mps 706 mmHg 84%
    19:00 +14°C° 0.6 mm 1 mps 706 mmHg 88%
    20:00 +12°C° 0.6 mm 1 mps 706 mmHg 92%
    21:00 +12°C° 0.1 mm 1 mps 706 mmHg 92%
    22:00 +12°C° 0.1 mm 1 mps 706 mmHg 92%
    23:00 +11°C° 0.1 mm 1 mps 707 mmHg 92%

    6 May, Saturday

    Time Temperature Precipitation Wind Pressure Humidity
    00:00 +11°C° 0 mm 1 mps 707 mmHg 93%
    01:00 +10°C° 0 mm 1 mps 706 mmHg 94%
    02:00 +10°C° 0 mm 1 mps 706 mmHg 94%
    03:00 +10°C° 0 mm 1 mps 707 mmHg 94%
    04:00 +10°C° 0 mm 1 mps 707 mmHg 95%
    05:00 +9°C° 0 mm 1 mps 707 mmHg 95%
    06:00 +10°C° 0 mm 2 mps 707 mmHg 91%
    07:00 +12°C° 0 mm 2 mps 708 mmHg 87%
    08:00 +14°C° 0 mm 2 mps 708 mmHg 83%
    09:00 +14°C° 0.1 mm 3 mps 708 mmHg 77%
    10:00 +16°C° 0.1 mm 3 mps 708 mmHg 72%
    11:00 +17°C° 0.1 mm 3 mps 708 mmHg 66%
    12:00 +18°C° 0.2 mm 3 mps 708 mmHg 62%
    13:00 +19°C° 0.2 mm 3 mps 708 mmHg 59%
    14:00 +20°C° 0.2 mm 4 mps 708 mmHg 55%
    15:00 +20°C° 0.2 mm 4 mps 708 mmHg 56%
    16:00 +20°C° 0.2 mm 3 mps 708 mmHg 56%
    17:00 +19°C° 0.2 mm 3 mps 708 mmHg 56%
    18:00 +17°C° 0.1 mm 3 mps 708 mmHg 66%
    19:00 +14°C° 0.1 mm 2 mps 708 mmHg 76%
    20:00 +12°C° 0.1 mm 1 mps 708 mmHg 86%
    21:00 +11°C° 0 mm 1 mps 708 mmHg 87%
    22:00 +11°C° 0 mm 1 mps 708 mmHg 89%
    23:00 +10°C° 0 mm 1 mps 708 mmHg 90%
    Show more